CZ-6A DEB

Satellite information

Favourite Embed

Satellite Type and Status

DEBRISIN ORBIT

Key statistics

Satellite CZ-6A DEB at a glance.

Uptime

1070

Days in orbit

Revolutions

≈ 14.0

Per day

Orbit

SSO

Sun Synchronous Orbit

Inclination

98.8

Latest

Satellite identification and parameters

Extended collection of information and parameters for CZ-6A DEB.

Object identification

Identified? True

Debris? True

Object name: CZ-6A DEB

International designator: 2022-151XB

Object number (NORAD): 55234

Object ID (CCSDS): 55234

Country: PEOPLES REPUBLIC OF CHINA (PRC)

Current information (Y/N): Y

RCS size: SMALL

Orbital parameters

Period: 103.096 minutes

Inclination: 98.8342 deg

SMA: 7283.182 km

Apoapsis: 986.699 km

Periapsis: 823.395 km

RAAN: 260.111 deg

Eccentricy: 0.01121103

Argument of periapsis: 12.5613 deg

Mean anomaly: 347.8303 deg

Mean motion: 13.96757626 rev/day

Mean motion (dot): 0.00001427 rev/day2

B* drag term: 0.0010031638 1/REarth

Two-line elements (TLE)

Creation date: Oct. 16, 2025, 2:37 a.m.

Reference frame: TEME

Reference center: EARTH

Epoch: Oct. 15, 2025, 8:34 p.m. UTC

TLE line 0: 0 CZ-6A DEB

TLE line 1: 1 55234U 22151XB 25288.85738027 .00001427 00000-0 10032-2 0 9997

TLE line 2: 2 55234 98.8342 260.1110 0112110 12.5613 347.8303 13.96757626148889

Live tracking on map

Real-time ground track for satellite CZ-6A DEB.

In-orbit conjunctions

A list of the most updated potential collisions computed for object CZ-6A DEB.

Target Orbit TCA Probability of collision Miss distance Type
CZ-6A DEB SSO 2025-09-27 11:08:35 0.0001783196 396.0 (m) DEBRIS
METEOR 2-8 DEB LEO 2024-08-27 01:41:23 0.0001505936 223.0 (m) DEBRIS

Associated space launch

Chinese satellite reported for atmospheric/ocean/environmental/spatial parameter research purposes, details TBD.

CZ-6A DEB was lifted into orbit during the mission ‘Long March 6A | Yunhai 3’, on board a Long March 6A space rocket.

The launch took place on Nov. 11, 2022, 10:52 p.m. from Launch Complex 9A.

For more information about the launch, click the button.

Launch to space Long March 6A | Yunhai 3
Long March 6A | Yunhai 3

Agency: N/A

Status: Launch Successful

Launch date: Nov. 11, 2022, 10:52 p.m. UTC

Rocket: Long March 6A

Launch pad: Launch Complex 9A

Location: Taiyuan Satellite Launch Center, People's Republic of China

...

Latest news about this satellite

There are no fresh news available about this satellite. Check back as we update our databases every day.


Newsletter sign-up

Weekly statistics, charts and insights to help you stay on top of the space industry.